Regional Weather Roundup
Issued by NWS San Diego, CA

Home | Current Version | Previous Version | Text Only | Print | Product List | Glossary On
Versions: 1 2 3 4 5 6 7 8 9 10 11 12 13 14 15 16 17 18 19 20 21 22 23 24 25 26 27 28 29 30 31 32 33 34 35 36 37 38 39 40 41 42 43 44 45 46 47 48 49 50
000
ASUS46 KSGX 301310
RWRSGX

SAN DIEGO HOURLY WEATHER ROUNDUP
NATIONAL WEATHER SERVICE SAN DIEGO CA
600 AM PDT THU OCT 30 2014

NOTE: "FAIR" INDICATES FEW OR NO CLOUDS BELOW 12,000 FEET WITH NO
SIGNIFICANT WEATHER AND/OR OBSTRUCTIONS TO VISIBILITY.

CAZ042-043-060-061-PZZ750-775-301400-

GREATER SAN DIEGO AREA

CITY           SKY/WX    TMP DP  RH WIND       PRES   REMARKS
LINDBERGH FLD  MOCLDY    63  59  88 N3        29.99R FOG
POINT LOMA       N/A     62  60  94 N6          N/A
NATIONAL CITY    N/A     61  58  90 CALM      29.98S
CHULA VISTA      N/A     56  54  92 CALM      29.91S
IMPERIAL BEACH MOCLDY    58  55  90 E7        29.97S
BROWN FIELD    MOCLDY    55  49  80 E5        29.98R
MIRAMAR MCAS   FOG       58  55  90 CALM      29.98R VSB 1/4
MONTGOMERY FLD FOG       60  59  96 CALM      29.98R VSB 1/4

$$

NORTH SAN DIEGO COUNTY

CITY           SKY/WX    TMP DP  RH WIND       PRES   REMARKS
CAMP PENDLETON PTCLDY    54  49  83 NE6       29.98S
OCEANSIDE AP   CLOUDY    56  51  84 NE3       29.97S
OCEANSIDE HBR    N/A     58  55  91 E6        30.00R
VISTA            N/A     55  51  87 CALM      29.95F
CARLSBAD       PTCLDY    60  53  77 E5        29.96F
DEL MAR          N/A     60  59  96 CALM      30.00R
LA JOLLA SCRIP   N/A     61  60  96 CALM      29.95
FALLBROOK        N/A     56  56 100 CALM      29.97F
ESCONDIDO        N/A     55  50  85 CALM      30.00S
SAN MARCOS       N/A     58  54  85 CALM      29.95F
POWAY            N/A     51  48  90 CALM      30.00S

$$

EAST SAN DIEGO COUNTY

CITY           SKY/WX    TMP DP  RH WIND       PRES   REMARKS
RAMONA         PTCLDY    44  39  82 CALM      30.00S
SANTEE LAKES     N/A     53  51  93 CALM      30.00S
LA MESA          N/A     58  53  83 E3        29.91S
JAMUL            N/A     51  49  91 CALM      29.97R
DESCANSO N       N/A     53  26  35 CALM      29.87S
CAMPO            N/A     52  26  36 E7        30.01S

$$

ORANGE COUNTY AND THE LOS ANGELES BASIN

CITY           SKY/WX    TMP DP  RH WIND       PRES   REMARKS
JOHN WAYNE AP  PTCLDY    63  57  81 CALM      29.97S
LAKE FOREST FR   N/A     60  40  47 CALM      29.88R
SANTA ANA        N/A     57  54  90 CALM      29.93S
HUNTINGTON BCH   N/A     57  56  96 CALM      30.00R
LOS ALAMITOS   FAIR      57  55  95 NE2       29.97S
FULLERTON      PTCLDY    60  55  83 CALM      29.97S
LONG BEACH     PTCLDY    60  56  86 CALM      29.97S
L.A. AP        MOCLDY    63  62  98 N3        29.98R
L.A. DOWNTOWN  PTCLDY    61  56  83 CALM      29.97S

$$

THE INLAND EMPIRE

CITY           SKY/WX    TMP DP  RH WIND       PRES   REMARKS
CORONA         CLOUDY    47  43  86 CALM      30.00R
CHINO          PTCLDY    53  48  83 CALM      30.00S
ONTARIO        MOCLDY    60  51  72 CALM      29.99S
RIVERSIDE AP   PTCLDY    58  50  75 NE5       30.00R
RIV CYN CREST    N/A     59  57  93 S1        29.96S
MORENO VALLEY    N/A     59  45  60 CALM      29.20R
MARCH ARB      PTCLDY    51  43  72 CALM      30.01R
HORSETHIEF CYN   N/A     57  35  43 SW2       29.99S
PERRIS           N/A     56  49  76 CALM      30.01R
MENIFEE          N/A     53  49  84 CALM      30.06S
HEMET EAST       N/A     62  24  23 CALM      29.96R
FRENCH VALLEY  FAIR      54  45  71 CALM      30.01S
TEMECULA         N/A     52  49  88 CALM      29.98R

$$

SAN BERNARDINO AND RIVERSIDE COUNTY MOUNTAINS

CITY           SKY/WX    TMP DP  RH WIND       PRES   REMARKS
BIG BEAR AP    PTCLDY    28  12  50 CALM      30.25S
ANGELUS OAKS     N/A     49  19  30 CALM      29.95R
PINE COVE        N/A     55 -11   6 CALM      29.88S

$$

SOUTHERN DESERT INCLUDING THE COACHELLA VALLEY

CITY           SKY/WX    TMP DP  RH WIND       PRES   REMARKS
PALM SPRINGS   CLEAR     65  30  27 MISG      29.98R
THOUSAND PALMS   N/A     61  35  37 NW1       29.93R
PALM DESERT      N/A     59  42  52 CALM        N/A
THERMAL        PTCLDY    53  39  59 N6        29.93R
BLYTHE         CLEAR     61  28  28 CALM      29.97R
IMPERIAL AP    MOCLDY    59  33  37 W7        29.93R
EL CENTRO NAS  MOCLDY    60  30  32 W8        29.93R
YUMA AZ        PTCLDY    67  36  31 NE3       29.93S

$$

UPPER DESERT

CITY           SKY/WX    TMP DP  RH WIND       PRES   REMARKS
VICTORVILLE AP PTCLDY    48  21  34 S5        30.07S
HESPERIA         N/A     50  28  41 W3        30.14R
APPLE VALLEY     N/A     42  33  72 CALM      30.15R
PALMDALE       MOCLDY    50  23  34 CALM      30.07S
LANCASTER      MOCLDY    43  16  33 W5        30.07R
EDWARDS AFB    PTCLDY    46  13  26 CALM      30.05R
DAGGETT        PTCLDY    53  17  24 W7        30.04S
29 PALMS N     PTCLDY    54  26  34 W5        30.11R
NEEDLES        CLEAR     61  20  20 NW3       30.00R

$$

REGIONAL REPORTS

CITY           SKY/WX    TMP DP  RH WIND       PRES   REMARKS
SANTA BARBARA  MOCLDY    55  50  83 SE3       29.95F
SANDBERG       MOCLDY    64  17  16 E8        30.14R
MT. WILSON       N/A     59  28  31 E8          N/A
LAS VEGAS NV   CLEAR     58  21  24 S8        30.05R
PHOENIX AZ     CLEAR     66  45  46 E5        29.99R
TIJUANA        PTCLDY    57  50  77 CALM      30.00R
ENSENADA NW      N/A     65  32  29 N1        29.95R

$$

OFFSHORE ISLANDS

CITY           SKY/WX    TMP DP  RH WIND       PRES   REMARKS
CATALINA ARPT  PTCLDY    68  36  30 N5        30.00F
SAN NICOLAS IS MOCLDY    59  47  64 CALM      29.97R

$$

MARINE AND OFFSHORE BUOY REPORTS

STATION/POSITION SKY/WX   TEMP    WIND        PRES    SWELL
                          AIR SEA DIR/SP/G            HT/PER/DIR
                          (F)     (DEG/KT/KT) (MB)    (FT/S/D)
TANNER BANKS               65 67  180/  2/  4 1014.5R   5/290/11
S CLEMENTE BASIN           69 70   20/  6/  6 1014.7R   3/220/13
SAN NICOLAS IS.               65                N/A     5/300/13
SO. S. ROSA ISLA           64 67  110/  4/  4 1013.9R   5/11
W. S. BARBARA CH           59 63  110/  4/  6 1013.7S   7/310/11
M. S. BARBARA CH           63 66   CALM  /  2 1014.8S
S. MONICA BASIN            66 68  340/  4/  4 1014.8F   2/220/12
S PEDRO CHANNEL               69                N/A     2/250/12
DANA POINT                    70                N/A     2/200/13
CMP PENDLETON NS              70                N/A     2/220/12
OCEANSIDE OFFSHR              70                N/A     2/210/13
TORREY PINES OTR              71                N/A     2/220/12
LA JOLLA 1                 62 70   30/  3/  4 1015.0S
MISSION BAY BUOY              70                N/A     2/240/12
SAN DIEGO BAY                 73              1015.5R
POINT LOMA SOUTH              71                N/A     2/210/13

$$




USA.gov is the U.S. government's official web portal to all federal, state and local government web resources and services.